GW6643 Weather Reports


Display with metric or nautical units.
time (UTC)temp
F
wind
direction
speed
MPH
gust
MPH
rain 1hr
in
rain 24hr
in
rain mn
in
humidity
%
barometer
mb
20260510152204 44 283 5.0 11.0 0.09 0.59 0.44 91 1013.4
20260510151705 44 324 6.0 11.0 0.09 0.58 0.43 91 1013.5
20260510151221 44 307 6.0 9.0 0.08 0.57 0.43 91 1013.5
20260510150704 44 343 5.0 7.0 0.08 0.57 0.42 90 1013.5
20260510150204 44 306 4.0 9.0 0.07 0.56 0.41 90 1013.6
20260510145705 44 305 6.0 9.0 0.06 0.54 0.39 90 1013.6
20260510145204 44 251 3.0 11.0 0.06 0.54 0.39 90 1013.6
20260510144205 44 302 4.0 18.0 0.06 0.53 0.38 90 1013.4
20260510143205 44 283 7.0 18.0 0.05 0.51 0.36 89 1013.4
20260510142705 44 320 9.0 15.0 0.04 0.50 0.35 89 1013.5
20260510142205 44 307 5.0 18.0 0.04 0.50 0.35 89 1013.4
20260510141704 44 302 9.0 24.0 0.03 0.50 0.35 88 1013.4
20260510141226 45 274 11.0 24.0 0.03 0.50 0.35 87 1013.5
20260510140705 45 309 11.0 24.0 0.03 0.50 0.35 86 1013.5
20260510135706 47 0 3.0 16.0 0.04 0.49 0.34 87 1013.2
20260510135215 47 269 3.0 16.0 0.07 0.48 0.33 87 1013.0
20260510134204 47 278 5.0 18.0 0.13 0.46 0.31 88 1013.0
20260510133705 47 1 3.0 18.0 0.14 0.46 0.31 88 1013.1
20260510133205 47 243 9.0 15.0 0.14 0.46 0.31 88 1013.3
20260510132705 46 30 3.0 15.0 0.14 0.46 0.31 88 1013.1
20260510132205 46 241 8.0 15.0 0.14 0.46 0.31 88 1013.2
20260510131707 46 307 2.0 14.0 0.14 0.46 0.31 88 1013.1
20260510131204 47 0 6.0 14.0 0.14 0.46 0.31 88 1013.2
20260510130705 47 303 5.0 15.0 0.14 0.46 0.31 88 1013.2
20260510130205 47 272 5.0 17.0 0.13 0.46 0.31 87 1013.3
20260510125204 47 214 9.0 18.0 0.09 0.40 0.25 85 1013.4
20260510124206 48 102 1.0 11.0 0.05 0.33 0.18 86 1012.8
20260510123704 48 196 4.0 11.0 0.06 0.32 0.17 86 1012.8
20260510123204 48 244 2.0 11.0 0.07 0.32 0.17 86 1012.8
20260510122710 48 254 3.0 11.0 0.08 0.32 0.17 87 1013.0
20260510122204 49 272 6.0 7.0 0.09 0.32 0.17 88 1013.0
20260510121705 48 30 3.0 6.0 0.09 0.32 0.17 88 1013.2
20260510121204 47 317 2.0 7.0 0.09 0.32 0.17 88 1013.2
20260510120205 46 337 4.0 20.0 0.09 0.32 0.17 87 1013.4
20260510115705 46 241 4.0 20.0 0.09 0.32 0.17 86 1013.5
20260510115204 46 186 5.0 20.0 0.06 0.30 0.15 86 1013.6
20260510114704 46 228 7.0 15.0 0.05 0.28 0.13 85 1013.8
20260510114205 47 243 7.0 15.0 0.06 0.28 0.13 85 1013.9
20260510113704 47 261 5.0 12.0 0.04 0.26 0.11 85 1014.0
20260510112705 48 195 5.0 12.0 0.03 0.24 0.09 84 1013.8
20260510112204 48 221 7.0 14.0 0.02 0.24 0.09 84 1013.6
20260510111705 48 14 4.0 14.0 0.02 0.24 0.09 85 1013.4
20260510110705 48 82 3.0 12.0 0.02 0.24 0.09 87 1013.9
20260510110205 48 41 7.0 18.0 0.02 0.24 0.09 87 1013.8
20260510105704 47 107 4.0 18.0 0.02 0.24 0.09 87 1014.0
20260510105205 47 110 5.0 13.0 0.02 0.24 0.09 87 1013.9
20260510104705 47 61 4.0 10.0 0.03 0.23 0.08 86 1014.0
20260510103704 47 131 4.0 7.0 0.02 0.21 0.06 86 1013.9
20260510103205 47 350 3.0 11.0 0.02 0.21 0.06 86 1013.8
20260510102205 47 295 4.0 11.0 0.02 0.21 0.06 86 1013.9
20260510101704 47 183 3.0 7.0 0.04 0.21 0.06 86 1014.1
20260510101205 47 275 4.0 14.0 0.05 0.21 0.06 87 1014.1
20260510100705 46 314 2.0 14.0 0.05 0.21 0.06 88 1014.0
20260510095705 46 161 3.0 11.0 0.06 0.21 0.06 87 1014.1
20260510094704 46 204 6.0 10.0 0.04 0.20 0.05 87 1014.2
20260510094204 46 221 4.0 10.0 0.05 0.20 0.05 87 1014.1
20260510093705 46 217 4.0 9.0 0.05 0.20 0.05 87 1014.1
20260510093205 45 104 2.0 9.0 0.05 0.20 0.05 87 1014.2
20260510092705 45 314 2.0 10.0 0.04 0.19 0.04 86 1014.1
20260510092204 46 321 3.0 10.0 0.03 0.18 0.03 86 1014.1
20260510091705 46 141 2.0 7.0 0.02 0.17 0.02 86 1014.1
20260510091205 46 16 3.0 11.0 0.02 0.17 0.02 86 1014.0
20260510090204 45 206 4.0 13.0 0.01 0.16 0.01 84 1013.9
20260510085705 46 157 2.0 13.0 0.01 0.16 0.01 83 1014.0
20260510085205 46 296 2.0 13.0 0.01 0.16 0.01 82 1014.0
20260510084204 47 227 3.0 9.0 0.00 0.15 0.00 82 1014.0
20260510083705 47 188 2.0 12.0 0.00 0.15 0.00 81 1013.9
20260510083205 47 109 0.0 12.0 0.00 0.15 0.00 81 1014.0
20260510082704 47 203 4.0 12.0 0.00 0.15 0.00 80 1013.9
20260510082205 47 172 6.0 13.0 0.00 0.15 0.00 80 1013.9
20260510081705 47 266 5.0 15.0 0.00 0.15 0.00 80 1013.9
20260510081205 47 278 0.0 17.0 0.00 0.15 0.00 81 1013.9
20260510080705 47 192 8.0 17.0 0.00 0.15 0.00 80 1013.9
20260510080205 47 261 3.0 12.0 0.00 0.15 0.00 80 1013.9
20260510075705 48 329 2.0 12.0 0.00 0.15 0.00 80 1013.9
20260510075204 47 27 4.0 12.0 0.00 0.15 0.00 81 1013.8
20260510074704 47 72 5.0 12.0 0.00 0.15 0.00 82 1013.8
20260510074204 47 133 5.0 12.0 0.00 0.15 0.00 82 1013.8
20260510073205 46 279 5.0 14.0 0.00 0.15 0.00 83 1013.6
20260510072705 46 234 5.0 14.0 0.00 0.15 0.00 83 1013.6
20260510071705 46 189 3.0 10.0 0.00 0.15 0.00 84 1013.8
20260510070204 45 299 4.0 7.0 0.00 0.15 0.00 85 1013.5
20260510065704 44 283 2.0 5.0 0.00 0.15 0.00 86 1013.6
20260510065204 44 288 0.0 9.0 0.00 0.15 0.00 86 1013.5
20260510064705 44 281 2.0 9.0 0.00 0.15 0.00 86 1013.8
20260510064204 44 306 3.0 9.0 0.00 0.15 0.00 86 1013.8
20260510063204 44 283 4.0 10.0 0.00 0.15 0.00 86 1013.6
20260510062205 44 283 3.0 13.0 0.00 0.15 0.00 86 1013.6
20260510061705 44 289 3.0 13.0 0.00 0.15 0.00 86 1013.5
20260510060723 44 195 5.0 9.0 0.00 0.15 0.00 86 1013.4
20260510055704 43 268 1.0 10.0 0.00 0.15 0.00 86 1013.2
20260510054704 43 307 2.0 14.0 0.00 0.15 0.00 86 1013.2
20260510053704 43 261 5.0 9.0 0.00 0.15 0.00 86 1013.2
20260510052705 43 216 4.0 10.0 0.00 0.15 0.00 86 1013.0
20260510052205 43 312 6.0 10.0 0.00 0.15 0.00 86 1013.0
20260510051705 43 271 5.0 10.0 0.00 0.15 0.00 86 1013.0
20260510051204 43 230 5.0 11.0 0.00 0.15 0.00 86 1012.8
20260510050227 43 219 5.0 16.0 0.00 0.15 0.00 86 1012.8
20260510045204 43 305 10.0 19.0 0.00 0.15 0.00 86 1012.8
20260510044705 43 283 6.0 19.0 0.00 0.15 0.00 86 1013.1
20260510043705 43 285 7.0 14.0 0.00 0.15 0.00 86 1012.8
20260510043205 43 203 6.0 14.0 0.00 0.15 0.00 86 1012.8
20260510042205 44 235 8.0 15.0 0.00 0.15 0.00 86 1013.0
20260510041704 44 230 7.0 15.0 0.00 0.15 0.00 87 1013.0
20260510040705 44 244 6.0 14.0 0.00 0.15 0.00 87 1013.0
20260510040205 44 180 8.0 16.0 0.00 0.15 0.00 87 1013.0
20260510035705 44 252 8.0 16.0 0.00 0.15 0.00 87 1013.1
20260510035205 44 233 6.0 15.0 0.00 0.15 0.00 87 1013.2
20260510034204 44 219 9.0 13.0 0.00 0.15 0.00 87 1013.4
20260510033704 44 285 7.0 11.0 0.00 0.15 0.00 86 1013.3
20260510033205 44 223 3.0 14.0 0.00 0.15 0.00 86 1013.4
20260510032705 44 275 4.0 14.0 0.00 0.15 0.00 86 1013.3
20260510032205 44 247 5.0 14.0 0.00 0.15 0.00 85 1013.3
20260510031722 44 209 3.0 13.0 0.00 0.15 0.00 85 1013.4
20260510030205 44 337 4.0 13.0 0.00 0.15 0.00 85 1013.6
20260510025704 44 300 2.0 12.0 0.00 0.15 0.00 85 1013.5
20260510025205 44 266 5.0 15.0 0.00 0.15 0.00 85 1013.5
20260510024705 44 199 5.0 16.0 0.00 0.15 0.00 85 1013.5
20260510024204 44 190 7.0 16.0 0.00 0.15 0.00 86 1013.5
20260510023705 44 227 12.0 9.0 0.00 0.15 0.00 86 1013.6
20260510023205 44 261 2.0 9.0 0.00 0.15 0.00 85 1013.6
20260510022704 44 282 3.0 11.0 0.00 0.15 0.00 85 1013.6
20260510022204 44 183 4.0 11.0 0.00 0.15 0.00 85 1013.6
20260510021705 44 182 3.0 12.0 0.00 0.15 0.00 85 1013.6
20260510021205 44 193 3.0 12.0 0.00 0.15 0.00 85 1013.8
20260510020704 45 281 5.0 15.0 0.00 0.15 0.00 85 1013.6
20260510020204 45 307 6.0 15.0 0.00 0.15 0.00 84 1013.6
20260510015705 45 252 4.0 15.0 0.00 0.15 0.00 85 1013.8
20260510015204 45 149 5.0 11.0 0.00 0.15 0.00 85 1013.6
20260510014704 45 266 4.0 12.0 0.00 0.15 0.00 85 1013.6
20260510014204 45 269 5.0 12.0 0.00 0.15 0.00 85 1013.6
20260510013705 45 230 6.0 16.0 0.00 0.15 0.00 85 1013.5
20260510013205 45 230 5.0 16.0 0.00 0.15 0.00 85 1013.6
20260510012205 45 281 5.0 17.0 0.00 0.15 0.00 85 1013.8
20260510011705 45 282 3.0 17.0 0.00 0.15 0.00 85 1013.9
20260510011204 45 235 7.0 17.0 0.00 0.15 0.00 85 1014.0
20260510010705 45 185 4.0 11.0 0.00 0.15 0.00 85 1013.9
20260510010204 45 200 6.0 13.0 0.00 0.15 0.00 85 1013.9
20260510004704 45 293 6.0 14.0 0.00 0.15 0.00 84 1014.1
20260510003705 45 243 7.0 26.0 0.00 0.15 0.00 84 1014.1
20260510003205 46 257 6.0 26.0 0.00 0.15 0.00 84 1014.3
20260510002705 46 282 6.0 26.0 0.00 0.15 0.00 84 1014.6
20260510002205 46 243 4.0 13.0 0.00 0.15 0.00 84 1014.4
20260510001704 46 257 3.0 15.0 0.00 0.15 0.00 84 1014.4
20260510001205 46 231 4.0 15.0 0.00 0.15 0.00 84 1014.4
20260510000733 46 172 6.0 15.0 0.00 0.15 0.00 84 1014.4
20260510000205 46 183 7.0 10.0 0.00 0.15 0.15 84 1014.4
20260509235205 46 192 5.0 14.0 0.00 0.15 0.15 84 1014.4
20260509234705 46 221 2.0 14.0 0.00 0.15 0.15 84 1014.4
20260509234205 46 268 6.0 12.0 0.00 0.15 0.15 84 1014.6
20260509233704 46 261 6.0 12.0 0.00 0.15 0.15 84 1014.4
20260509233204 46 141 3.0 12.0 0.00 0.15 0.15 84 1014.6
20260509232705 46 203 6.0 12.0 0.00 0.15 0.15 85 1014.4
20260509232204 46 133 2.0 12.0 0.00 0.15 0.15 84 1014.6
20260509231705 46 192 4.0 11.0 0.00 0.15 0.15 84 1014.4
20260509231205 46 235 3.0 13.0 0.00 0.15 0.15 85 1014.6
20260509230704 46 281 5.0 13.0 0.00 0.15 0.15 85 1014.7
20260509230205 46 193 4.0 13.0 0.00 0.15 0.15 85 1014.7
20260509225704 46 226 7.0 11.0 0.00 0.15 0.15 86 1014.7
20260509225204 46 24 2.0 11.0 0.00 0.15 0.15 85 1014.6
20260509224704 46 321 2.0 11.0 0.00 0.15 0.15 85 1014.6
20260509224205 46 326 6.0 11.0 0.00 0.15 0.15 86 1014.7
20260509223705 46 264 4.0 11.0 0.00 0.15 0.15 86 1014.3
20260509223205 45 293 5.0 9.0 0.00 0.15 0.15 86 1014.4
20260509222705 46 348 2.0 12.0 0.00 0.15 0.15 86 1014.2
20260509221705 46 128 4.0 15.0 0.00 0.15 0.15 86 1014.2
20260509221204 46 58 3.0 15.0 0.00 0.15 0.15 85 1014.3
20260509220705 46 72 5.0 15.0 0.00 0.15 0.15 86 1014.3
20260509215705 46 0 5.0 9.0 0.00 0.15 0.15 86 1014.3
20260509215204 46 66 4.0 11.0 0.00 0.15 0.15 86 1014.3
20260509214705 46 31 3.0 11.0 0.00 0.15 0.15 86 1014.2
20260509214205 46 106 4.0 11.0 0.00 0.15 0.15 86 1014.1
20260509212705 47 58 2.0 15.0 0.00 0.15 0.15 86 1014.1
20260509211704 47 185 5.0 11.0 0.00 0.15 0.15 86 1014.0
20260509211224 47 23 3.0 11.0 0.00 0.15 0.15 86 1014.1
20260509210705 47 59 1.0 10.0 0.00 0.15 0.15 86 1014.0
20260509210205 47 44 4.0 10.0 0.00 0.15 0.15 86 1014.1
20260509205704 47 338 4.0 9.0 0.00 0.15 0.15 86 1014.1
20260509205205 47 32 4.0 13.0 0.00 0.15 0.15 86 1014.0
20260509204705 47 231 4.0 13.0 0.01 0.15 0.15 86 1014.1
20260509204204 47 305 3.0 16.0 0.01 0.15 0.15 86 1014.2
20260509203704 47 312 5.0 16.0 0.01 0.15 0.15 86 1014.2
20260509203204 47 154 4.0 16.0 0.01 0.15 0.15 86 1014.1
20260509202704 47 87 2.0 5.0 0.01 0.15 0.15 86 1013.9
20260509202205 47 288 1.0 7.0 0.01 0.15 0.15 86 1013.8
20260509201705 47 219 0.0 7.0 0.01 0.15 0.15 87 1013.6
20260509201204 47 178 4.0 7.0 0.01 0.15 0.15 87 1013.5
20260509200705 47 186 3.0 5.0 0.01 0.15 0.15 88 1013.6
20260509200205 47 45 1.0 5.0 0.01 0.15 0.15 88 1013.4
20260509195205 47 23 3.0 6.0 0.01 0.15 0.15 88 1013.3
20260509194705 47 183 1.0 7.0 0.00 0.14 0.14 89 1013.3
20260509193205 47 278 1.0 6.0 0.01 0.14 0.14 89 1013.2
20260509192705 47 290 2.0 6.0 0.02 0.14 0.14 89 1013.2
20260509192205 47 195 2.0 3.0 0.04 0.14 0.14 89 1013.2
20260509191704 47 316 0.0 3.0 0.08 0.14 0.14 89 1013.1
20260509190704 47 296 1.0 6.0 0.11 0.14 0.14 89 1013.1
20260509190205 47 282 2.0 6.0 0.11 0.14 0.14 89 1012.8
20260509185705 47 282 2.0 6.0 0.11 0.14 0.14 89 1013.0
20260509185205 47 290 2.0 6.0 0.11 0.14 0.14 89 1013.0
20260509184704 47 250 4.0 6.0 0.11 0.14 0.14 89 1012.8
20260509184205 47 176 2.0 6.0 0.11 0.14 0.14 89 1012.8
20260509183705 47 217 2.0 9.0 0.11 0.14 0.14 88 1012.6
20260509183204 47 168 2.0 9.0 0.09 0.13 0.13 88 1012.6
20260509182704 47 113 3.0 9.0 0.09 0.12 0.12 87 1012.5
20260509182204 48 87 1.0 5.0 0.06 0.09 0.09 87 1012.4
20260509181705 48 111 2.0 3.0 0.04 0.06 0.06 87 1012.4
20260509181204 48 137 2.0 3.0 0.02 0.05 0.05 87 1012.3
20260509180704 49 71 0.0 3.0 0.01 0.03 0.03 86 1012.2
20260509180204 49 117 1.0 3.0 0.01 0.03 0.03 86 1012.2
20260509175704 49 79 0.0 3.0 0.01 0.03 0.03 85 1012.1
20260509175205 49 79 0.0 3.0 0.01 0.03 0.03 85 1011.9
20260509174704 49 79 0.0 3.0 0.01 0.03 0.03 85 1012.1
20260509174205 49 79 0.0 3.0 0.01 0.03 0.03 85 1011.9
20260509173705 49 78 1.0 4.0 0.01 0.03 0.03 84 1011.9
20260509173205 49 79 1.0 6.0 0.01 0.03 0.03 83 1011.8
20260509172205 49 71 2.0 6.0 0.00 0.02 0.02 81 1011.8
20260509171705 49 80 4.0 7.0 0.00 0.02 0.02 81 1011.7
20260509171204 50 79 4.0 7.0 0.00 0.02 0.02 80 1011.8
20260509170704 50 116 2.0 7.0 0.00 0.02 0.02 79 1011.7
20260509170205 51 151 3.0 11.0 0.00 0.02 0.02 79 1011.5
20260509165704 52 138 3.0 11.0 0.01 0.02 0.02 79 1011.4
20260509164704 53 168 5.0 11.0 0.02 0.02 0.02 77 1011.1
20260509163704 52 278 1.0 10.0 0.02 0.02 0.02 77 1010.9
20260509163205 52 286 3.0 10.0 0.02 0.02 0.02 78 1011.4
20260509162205 52 149 0.0 6.0 0.02 0.02 0.02 77 1011.4
20260509161705 52 149 2.0 9.0 0.02 0.02 0.02 77 1011.4
20260509161205 52 147 1.0 10.0 0.02 0.02 0.02 76 1011.4
20260509160705 51 182 2.0 10.0 0.02 0.02 0.02 75 1011.4
20260509155704 52 185 4.0 9.0 0.02 0.02 0.02 73 1011.4
20260509155204 52 188 2.0 10.0 0.02 0.02 0.02 73 1011.4
20260509154704 52 275 4.0 11.0 0.01 0.01 0.01 73 1011.3
20260509154205 53 111 2.0 14.0 0.00 0.00 0.00 72 1011.0
20260509153205 54 165 6.0 14.0 0.00 0.00 0.00 68 1011.0
20260509152705 54 111 5.0 11.0 0.00 0.00 0.00 67 1010.9